map of ORY home
ORY - Airport
Location
City:  Paris, Īle-de-France, France
Name:Orly
ICAO:LFPO
IATA:ORY

Details
Type:Airport (Aerodrome, Airfield)
Use:Public/Civil, International (customs port of entry)
Latitude:48°43'24"N (48.723333)
Longitude:2°22'46"E (2.379444)
Elevation:291 ft (89 m)
Variation:0.68°E (WMM2015 magnetic declination)
0.13° annual change
Runways:3
Longest:11975 × 148 ft (3650 × 45 m), paved

Time
Time Zone:UTC+1 (DST+2)
Local Time:

Weather
METAR:LFPO 170130Z 29004KT 270V330 CAVOK 20/11 Q1015 NOSIG
TAF:LFPO 162300Z 1700/1806 35005KT CAVOK

Related Locations
Nearby:
Farthest:CHT: 12086 mi / 19451 km
Waitangi [Tuuta], CIT, NZ

Find:

   beyond  
but within

Other Information
Maps:
NOTAMs:
Links:
Sources:

  
  • flag of France
  • flag of Īle-de-France
  • flag of Paris
  

Airport Diagram

Airport diagram for ORY

Larger airport diagram (OBSOLETE) from NGA

Sectional Chart

Flight Planning
at skyvector.com

Satellite Image

Google Maps Satellite view

 

Copyright © 2004-2018 Karl L. Swartz. All rights reserved.
The Great Circle Mapper name and logo are trademarks of the Great Circle Mapper.
All other trademarks mentioned herein belong to their respective owners.
Please see credits for attibutions and further copyright information.

  Follow gcmap on Facebook Follow gcmap on Twitter Follow gcmap on Google+ GCmap on LinkedIn

hCard Microformat

Geo Microformat